BRO67 EGTK-EGMC

Flight info

Callsign BRO67
Flight time 0h 39m
Altitude 7000
Route SILVA
Aircraft DA62/L-SDFGRY/C

Departure

Time 2026-05-03 23:53
Airport London Oxford Airport (EGTK)

Arrival

Time 2026-05-04 00:32
Airport London Southend Airport (EGMC)
Time Latitude Longitude Altitude Speed Heading
2026-05-03 23:44 51.83180 -1.31366 257 ft 0 kts 208°
2026-05-03 23:48 51.83154 -1.31396 257 ft 7 kts 232°
2026-05-03 23:48 51.83139 -1.31462 257 ft 4 kts 253°
2026-05-03 23:48 51.83119 -1.31534 257 ft 6 kts 204°
2026-05-03 23:49 51.83060 -1.31529 257 ft 13 kts 205°
2026-05-03 23:49 51.83022 -1.31647 257 ft 14 kts 260°
2026-05-03 23:49 51.83012 -1.31750 257 ft 0 kts 305°
2026-05-03 23:50 51.83004 -1.31809 257 ft 10 kts 261°
2026-05-03 23:50 51.82993 -1.31938 257 ft 9 kts 263°
2026-05-03 23:50 51.82986 -1.32030 257 ft 6 kts 266°
2026-05-03 23:51 51.82985 -1.32035 257 ft 0 kts 267°
2026-05-03 23:51 51.82986 -1.32072 257 ft 9 kts 277°
2026-05-03 23:51 51.83014 -1.32178 257 ft 10 kts 322°
2026-05-03 23:51 51.83125 -1.32170 257 ft 42 kts 11°
2026-05-03 23:52 51.83596 -1.32029 307 ft 82 kts 11°
2026-05-03 23:52 51.83629 -1.32019 330 ft 81 kts 11°
2026-05-03 23:52 51.84023 -1.31924 617 ft 73 kts
2026-05-03 23:52 51.84550 -1.31767 850 ft 81 kts 13°
2026-05-03 23:53 51.85053 -1.31391 1106 ft 84 kts 41°
2026-05-03 23:53 51.85337 -1.30571 1302 ft 93 kts 75°
2026-05-03 23:53 51.85277 -1.29465 1581 ft 99 kts 102°
2026-05-03 23:53 51.85081 -1.28437 1906 ft 95 kts 99°
2026-05-03 23:54 51.84949 -1.27363 2175 ft 99 kts 97°
2026-05-03 23:54 51.84858 -1.26274 2494 ft 97 kts 93°
2026-05-03 23:54 51.84751 -1.25181 2781 ft 99 kts 96°
2026-05-03 23:54 51.84640 -1.24065 3061 ft 102 kts 97°
2026-05-03 23:55 51.84533 -1.22930 3346 ft 104 kts 96°
2026-05-03 23:55 51.84426 -1.21760 3685 ft 105 kts 97°
2026-05-03 23:55 51.84320 -1.20598 3993 ft 106 kts 97°
2026-05-03 23:55 51.84215 -1.19426 4292 ft 106 kts 97°
2026-05-03 23:56 51.84111 -1.18230 4597 ft 108 kts 96°
2026-05-03 23:56 51.84014 -1.17015 4922 ft 109 kts 96°
2026-05-03 23:56 51.83923 -1.15796 5257 ft 110 kts 97°
2026-05-03 23:56 51.83839 -1.14574 5578 ft 111 kts 97°
2026-05-03 23:57 51.83765 -1.13332 5902 ft 112 kts 90°
2026-05-03 23:57 51.83812 -1.12070 6209 ft 114 kts 86°
2026-05-03 23:57 51.83889 -1.10820 6549 ft 112 kts 83°
2026-05-03 23:57 51.83991 -1.09574 6832 ft 114 kts 84°
2026-05-03 23:58 51.84101 -1.08218 6994 ft 129 kts 84°
2026-05-03 23:58 51.84231 -1.06675 7014 ft 148 kts 83°
2026-05-03 23:58 51.84381 -1.04948 7002 ft 161 kts 83°
2026-05-03 23:58 51.84539 -1.03113 7007 ft 168 kts 82°
2026-05-03 23:59 51.84701 -1.01243 6993 ft 168 kts 82°
2026-05-03 23:59 51.85037 -0.99422 6988 ft 168 kts 69°
2026-05-03 23:59 51.85464 -0.97667 6987 ft 168 kts 68°
2026-05-03 23:59 51.85900 -0.95913 6981 ft 167 kts 69°
2026-05-04 00:00 51.86332 -0.94165 6988 ft 167 kts 69°
2026-05-04 00:00 51.86761 -0.92420 6986 ft 168 kts 69°
2026-05-04 00:00 51.87195 -0.90651 6986 ft 169 kts 69°
2026-05-04 00:00 51.87626 -0.88896 6985 ft 169 kts 69°
2026-05-04 00:01 51.88062 -0.87116 6985 ft 169 kts 69°
2026-05-04 00:01 51.88491 -0.85364 6985 ft 169 kts 69°
2026-05-04 00:01 51.88926 -0.83583 6984 ft 169 kts 69°
2026-05-04 00:01 51.89357 -0.81820 6983 ft 169 kts 69°
2026-05-04 00:02 51.89788 -0.80054 6984 ft 168 kts 69°
2026-05-04 00:02 51.90218 -0.78292 6985 ft 168 kts 69°
2026-05-04 00:02 51.90651 -0.76523 6987 ft 168 kts 69°
2026-05-04 00:02 51.91076 -0.74777 6990 ft 168 kts 69°
2026-05-04 00:03 51.91503 -0.73026 6996 ft 168 kts 69°
2026-05-04 00:03 51.91934 -0.71253 6999 ft 168 kts 69°
2026-05-04 00:03 51.92365 -0.69482 6999 ft 169 kts 69°
2026-05-04 00:03 51.92794 -0.67712 6998 ft 170 kts 69°
2026-05-04 00:04 51.93232 -0.65907 6999 ft 170 kts 69°
2026-05-04 00:04 51.93662 -0.64136 6997 ft 170 kts 69°
2026-05-04 00:04 51.94092 -0.62359 7000 ft 170 kts 69°
2026-05-04 00:04 51.94524 -0.60575 6998 ft 170 kts 69°
2026-05-04 00:05 51.94958 -0.58782 6997 ft 170 kts 69°
2026-05-04 00:05 51.95392 -0.56986 6994 ft 170 kts 69°
2026-05-04 00:05 51.95824 -0.55199 7002 ft 170 kts 69°
2026-05-04 00:05 51.96253 -0.53424 7001 ft 170 kts 69°
2026-05-04 00:06 51.96687 -0.51630 6997 ft 171 kts 69°
2026-05-04 00:06 51.97121 -0.49833 6991 ft 170 kts 69°
2026-05-04 00:06 51.97552 -0.48040 6983 ft 170 kts 69°
2026-05-04 00:06 51.97982 -0.46253 7002 ft 170 kts 69°
2026-05-04 00:07 51.98411 -0.44469 6997 ft 170 kts 69°
2026-05-04 00:07 51.98843 -0.42669 7000 ft 171 kts 69°
2026-05-04 00:07 51.99278 -0.40857 7001 ft 171 kts 69°
2026-05-04 00:07 51.99541 -0.39003 6995 ft 169 kts 90°
2026-05-04 00:08 51.99542 -0.37081 6987 ft 170 kts 91°
2026-05-04 00:08 51.99521 -0.35181 6983 ft 169 kts 91°
2026-05-04 00:08 51.99499 -0.33240 6981 ft 169 kts 92°
2026-05-04 00:08 51.99477 -0.31349 6982 ft 168 kts 92°
2026-05-04 00:09 51.99455 -0.29465 6975 ft 168 kts 92°
2026-05-04 00:09 51.99432 -0.27571 6980 ft 167 kts 92°
2026-05-04 00:09 51.99410 -0.25661 6991 ft 169 kts 92°
2026-05-04 00:09 51.99387 -0.23758 6986 ft 169 kts 92°
2026-05-04 00:10 51.99364 -0.21879 6987 ft 169 kts 93°
2026-05-04 00:10 51.99340 -0.19966 6985 ft 168 kts 93°
2026-05-04 00:10 51.99315 -0.18057 6994 ft 169 kts 93°
2026-05-04 00:10 51.99290 -0.16143 6992 ft 169 kts 92°
2026-05-04 00:11 51.99264 -0.14249 6985 ft 170 kts 92°
2026-05-04 00:11 51.99239 -0.12323 6980 ft 169 kts 92°
2026-05-04 00:11 51.99215 -0.10431 6993 ft 168 kts 92°
2026-05-04 00:11 51.99189 -0.08520 6987 ft 169 kts 92°
2026-05-04 00:12 51.99163 -0.06635 6987 ft 169 kts 92°
2026-05-04 00:12 51.99137 -0.04708 6987 ft 169 kts 92°
2026-05-04 00:12 51.99111 -0.02814 6983 ft 169 kts 92°
2026-05-04 00:12 51.99085 -0.00896 6987 ft 169 kts 92°
2026-05-04 00:13 51.99057 0.00996 6984 ft 169 kts 92°
2026-05-04 00:13 51.99030 0.02901 6984 ft 168 kts 92°
2026-05-04 00:13 51.99003 0.04821 6987 ft 169 kts 92°
2026-05-04 00:13 51.98805 0.06664 6986 ft 166 kts 115°
2026-05-04 00:14 51.98324 0.08378 6987 ft 166 kts 117°
2026-05-04 00:14 51.97824 0.10056 6987 ft 166 kts 118°
2026-05-04 00:14 51.97313 0.11758 6985 ft 166 kts 118°
2026-05-04 00:14 51.96810 0.13428 6988 ft 165 kts 117°
2026-05-04 00:15 51.96300 0.15125 6990 ft 165 kts 117°
2026-05-04 00:15 51.95798 0.16792 6993 ft 166 kts 117°
2026-05-04 00:15 51.95287 0.18497 6994 ft 166 kts 117°
2026-05-04 00:15 51.94775 0.20197 6994 ft 167 kts 117°
2026-05-04 00:16 51.94268 0.21877 6994 ft 167 kts 117°
2026-05-04 00:16 51.93755 0.23583 6994 ft 167 kts 117°
2026-05-04 00:16 51.93243 0.25281 6994 ft 167 kts 118°
2026-05-04 00:16 51.92734 0.26970 6993 ft 167 kts 118°
2026-05-04 00:17 51.92216 0.28681 6993 ft 167 kts 118°
2026-05-04 00:17 51.91703 0.30380 6994 ft 167 kts 118°
2026-05-04 00:17 51.91187 0.32084 6995 ft 167 kts 118°
2026-05-04 00:17 51.90678 0.33764 6994 ft 167 kts 118°
2026-05-04 00:18 51.90163 0.35462 6992 ft 168 kts 118°
2026-05-04 00:18 51.89646 0.37171 6996 ft 168 kts 118°
2026-05-04 00:18 51.89129 0.38875 6999 ft 169 kts 117°
2026-05-04 00:18 51.88611 0.40585 6998 ft 169 kts 117°
2026-05-04 00:19 51.88092 0.42292 6994 ft 169 kts 117°
2026-05-04 00:19 51.87569 0.44010 6992 ft 169 kts 117°
2026-05-04 00:19 51.87051 0.45715 6994 ft 169 kts 117°
2026-05-04 00:19 51.86528 0.47435 6986 ft 169 kts 117°
2026-05-04 00:20 51.86017 0.49116 6988 ft 169 kts 117°
2026-05-04 00:20 51.85492 0.50838 6991 ft 169 kts 118°
2026-05-04 00:20 51.84977 0.52529 6988 ft 169 kts 118°
2026-05-04 00:20 51.84448 0.54259 6986 ft 169 kts 118°
2026-05-04 00:21 51.83933 0.55946 6983 ft 169 kts 118°
2026-05-04 00:21 51.83416 0.57642 6982 ft 168 kts 118°
2026-05-04 00:21 51.82907 0.59328 6826 ft 163 kts 117°
2026-05-04 00:21 51.82412 0.60950 6569 ft 160 kts 117°
2026-05-04 00:22 51.81921 0.62548 6314 ft 157 kts 117°
2026-05-04 00:22 51.81432 0.64119 6058 ft 155 kts 117°
2026-05-04 00:22 51.80947 0.65661 5803 ft 153 kts 118°
2026-05-04 00:22 51.80462 0.67194 5551 ft 154 kts 118°
2026-05-04 00:23 51.79973 0.68728 5299 ft 155 kts 118°
2026-05-04 00:23 51.79476 0.70273 5046 ft 156 kts 118°
2026-05-04 00:23 51.78971 0.71839 4787 ft 156 kts 118°
2026-05-04 00:23 51.78471 0.73384 4536 ft 156 kts 118°
2026-05-04 00:24 51.77963 0.74940 4279 ft 156 kts 118°
2026-05-04 00:24 51.77456 0.76489 4022 ft 156 kts 118°
2026-05-04 00:24 51.76942 0.78042 3765 ft 156 kts 118°
2026-05-04 00:24 51.76426 0.79586 3511 ft 156 kts 118°
2026-05-04 00:25 51.75879 0.81088 3255 ft 155 kts 121°
2026-05-04 00:25 51.75321 0.82552 3001 ft 155 kts 121°
2026-05-04 00:25 51.74751 0.84026 2745 ft 155 kts 121°
2026-05-04 00:25 51.74106 0.85400 2474 ft 155 kts 143°
2026-05-04 00:26 51.73172 0.86284 2224 ft 154 kts 150°
2026-05-04 00:26 51.72229 0.87115 2028 ft 155 kts 151°
2026-05-04 00:26 51.71292 0.87937 1989 ft 152 kts 151°
2026-05-04 00:26 51.70368 0.88750 1980 ft 150 kts 151°
2026-05-04 00:27 51.69367 0.89091 1972 ft 149 kts 192°
2026-05-04 00:27 51.68378 0.88609 1974 ft 149 kts 200°
2026-05-04 00:27 51.67390 0.88055 1970 ft 149 kts 201°
2026-05-04 00:27 51.66415 0.87496 1971 ft 149 kts 201°
2026-05-04 00:28 51.65433 0.86931 1972 ft 149 kts 204°
2026-05-04 00:28 51.64639 0.85911 1971 ft 146 kts 229°
2026-05-04 00:28 51.63976 0.84668 1969 ft 146 kts 234°
2026-05-04 00:28 51.63358 0.83358 1969 ft 146 kts 235°
2026-05-04 00:29 51.62748 0.82015 1820 ft 147 kts 236°
2026-05-04 00:29 51.62179 0.80756 1632 ft 133 kts 236°
2026-05-04 00:29 51.61674 0.79632 1516 ft 119 kts 237°
2026-05-04 00:29 51.61200 0.78575 1347 ft 115 kts 237°
2026-05-04 00:30 51.60733 0.77534 1187 ft 112 kts 237°
2026-05-04 00:30 51.60280 0.76523 1033 ft 111 kts 237°
2026-05-04 00:30 51.59826 0.75515 879 ft 110 kts 237°
2026-05-04 00:30 51.59385 0.74537 742 ft 100 kts 237°
2026-05-04 00:31 51.58996 0.73673 600 ft 92 kts 237°
2026-05-04 00:31 51.58624 0.72844 478 ft 90 kts 237°
2026-05-04 00:31 51.58256 0.72028 353 ft 88 kts 237°
2026-05-04 00:31 51.57896 0.71241 231 ft 88 kts 239°
2026-05-04 00:32 51.57540 0.70443 100 ft 88 kts 237°
2026-05-04 00:32 51.57208 0.69700 41 ft 69 kts 236°
2026-05-04 00:32 51.57002 0.69242 41 ft 34 kts 237°
2026-05-04 00:32 51.56913 0.69051 41 ft 12 kts 207°
2026-05-04 00:33 51.56849 0.69095 41 ft 8 kts 146°
2026-05-04 00:33 51.56884 0.69265 41 ft 10 kts 57°
2026-05-04 00:33 51.56900 0.69358 41 ft 7 kts 81°
2026-05-04 00:34 51.56908 0.69433 41 ft 8 kts 81°
2026-05-04 00:34 51.56918 0.69536 41 ft 8 kts 84°
2026-05-04 00:34 51.56903 0.69598 41 ft 5 kts 156°
2026-05-04 00:34 51.56849 0.69621 41 ft 6 kts 202°
2026-05-04 00:35 51.56849 0.69605 41 ft 0 kts 324°